This is the latest recevied weather packets stored in our database for station/object KD5FHA. If no packets are shown the sender has not sent any weather packets the latest 1 day(s).
| Time | Temp. | Humidity | Pressure | Rain* | Wind** | Luminosity | Snow |
|---|---|---|---|---|---|---|---|
| 1778104934 | 16.67° C | 73% | 1014.2 hPa | 0 mm | - | 183 W/m² | - |
| 1778104631 | 16.67° C | 74% | 1014 hPa | 0 mm | - | 172 W/m² | - |
| 1778103419 | 16.11° C | 74% | 1014 hPa | 0 mm | - | 154 W/m² | - |
| 1778103116 | 16.11° C | 74% | 1013.9 hPa | 0 mm | - | 179 W/m² | - |
| 1778102508 | 16.11° C | 74% | 1013.8 hPa | 0 mm | - | 170 W/m² | - |
| 1778100686 | 15.56° C | 75% | 1014.4 hPa | 0 mm | - | 356 W/m² | - |
| 1778100081 | 16.11° C | 76% | 1014.3 hPa | 0 mm | - | 302 W/m² | - |
| 1778095535 | 15° C | 79% | 1015.2 hPa | 0 mm | - | 299 W/m² | - |
| 1778095231 | 14.44° C | 81% | 1015 hPa | 0 mm | - | 216 W/m² | - |
| 1778092199 | 13.89° C | 80% | 1015.7 hPa | 0 mm | - | 142 W/m² | - |
| 1778091896 | 13.89° C | 81% | 1015.5 hPa | 0 mm | - | 145 W/m² | - |
| 1778091593 | 13.89° C | 81% | 1015.4 hPa | 0 mm | - | 133 W/m² | - |
| 1778090078 | 13.33° C | 83% | 1013.9 hPa | 0 mm | - | 220 W/m² | - |
| 1778088866 | 13.89° C | 83% | 1014.2 hPa | 0 mm | - | 266 W/m² | - |
| 1778088563 | 13.33° C | 84% | 1014.1 hPa | 0 mm | - | 282 W/m² | - |
| 1778088260 | 13.33° C | 83% | 1014.3 hPa | 0 mm | - | 176 W/m² | - |
| 1778087352 | 13.33° C | 83% | 1014.4 hPa | 0 mm | - | 222 W/m² | - |
| 1778087048 | 13.33° C | 83% | 1014.5 hPa | 0 mm | - | 222 W/m² | - |
| 1778086747 | 13.33° C | 84% | 1015.2 hPa | 0 mm | - | 151 W/m² | - |
| 1778086445 | 13.33° C | 85% | 1015.4 hPa | 0 mm | - | 173 W/m² | - |
| 1778084925 | 13.33° C | 85% | 1014.5 hPa | 0 mm | - | 104 W/m² | - |
| 1778081679 | 12.78° C | 90% | 1014.8 hPa | 0 mm | - | 160 W/m² | - |
| 1778081073 | 12.22° C | 90% | 1015.1 hPa | 0 mm | - | 180 W/m² | - |
| 1778080772 | 11.67° C | 89% | 1015.1 hPa | 0.51 mm | - | 95 W/m² | - |
| 1778079862 | 12.22° C | 86% | 1015.7 hPa | 0 mm | - | 65 W/m² | - |
* Rain latest hour (hover to see other rain measurements)
** Current wind speed in m/s (hover to see current wind gust speed)